User: anonymous   Login
Location: Unspecified
(0.0000°N, 0.0000°E)
Time: 07:16:50
(UTC+00:00)
Language:

TIANWANG 1C (TW-1C) - Orbit

View from above orbital plane
View from above orbital plane
View from above satellite
View from above satellite

Ground track
Ground track

The orbit data is extracted from the following two-line orbital elements,

1 40926U 15051B   17177.79730787 +.00006301 +00000-0 +14545-3 0  9996
2 40926 097.2290 217.2837 0013079 128.4834 320.6586 15.42807286098406
Epoch (UTC): 26 June 2017 19:08:07
Eccentricity: 0.0013079
inclination: 97.2290°
perigee height: 429 km
apogee height: 447 km
right ascension of ascending node: 217.2837°
argument of perigee: 128.4834°
revolutions per day: 15.42807286
mean anomaly at epoch: 320.6586°
orbit number at epoch: 9840

The dashed part of the orbit path shows where the satellite is in the earth's shadow,  

DLR